Regional Weather Roundup
Issued by NWS

Home | Current Version | Previous Version | Text Only | Print | Product List | Glossary Off
Versions: 1 2 3 4 5 6 7 8 9 10 11 12 13 14 15 16 17 18 19 20 21 22 23 24 25 26 27 28 29 30 31 32 33 34 35 36 37 38 39 40 41 42 43 44 45 46 47 48 49 50

000
ASUS45 KSLC 180010
RWRUT

UTAH REGIONAL WEATHER ROUNDUP
NATIONAL WEATHER SERVICE SALT LAKE CITY UT
600 PM MDT FRI APR 17 2015

UTZ001>011-023>025-180100-

NORTHERN UTAH

CITY           SKY/WX    TMP DP  RH WIND       PRES   REMARKS
BRIGHAM CITY   MOSUNNY   67  28  23 N7        29.98F
HILL AFB       CLOUDY    60  37  43 SW9       30.01F
LOGAN          SUNNY     64  33  31 W5        29.98F
OGDEN          SUNNY     64  33  31 VRB5      29.99F
PROVO AIRPORT  MOSUNNY   55  36  47 E9        29.99F
SALT LAKE CITY PTSUNNY   61  35  37 W12       30.01F
VERNAL         CLOUDY    48  31  51 NE17G28   30.02S
WENDOVER       SUNNY     68  19  15 E9        30.01S
HEBER CITY     PTSUNNY   55  30  38 N15G22    30.02S
WEST JORDAN    PTSUNNY   57  37  47 NW9       30.03S

$$

UTZ012>022-026-027-180100-

SOUTHERN/CENTRAL UTAH

CITY           SKY/WX    TMP DP  RH WIND       PRES   REMARKS
BLANDING       CLOUDY    40  34  80 S3        30.10R
BRYCE CANYON   MOSUNNY   45  29  53 NW16      30.07R
CEDAR CITY     CLOUDY    57  27  31 NE12G21   30.05S
DELTA          PTSUNNY   62  26  26 N9G17     30.00S
HANKSVILLE     CLOUDY    52  39  62 SE13      29.99R
MILFORD        MOSUNNY   61  28  28 N9        30.02F
MOAB/CYNLANDS  CLOUDY    41  40  96 SE12      30.00R
PRICE          CLOUDY    46  38  73 NE9       30.01R
ST GEORGE      MOCLDY    68  28  22 SW5       29.98S
KANAB          MOSUNNY   55  28  35 CALM      30.04F

$$

REGIONAL REPORTS     COLORADO/ARIZONA

CITY           SKY/WX    TMP DP  RH WIND       PRES   REMARKS
CRAIG, CO      CLOUDY    47  37  68 N7        29.96R
GRAND JUNCTION LGT RAIN  36  35  96 CALM      30.02R
RIFLE          LGT RAIN  39  34  82 MISG      30.02R
MONTROSE       LGT RAIN  39  33  79 CALM      30.02R
CORTEZ         CLOUDY    42  25  50 SW9       30.04R
PAGE, AZ       CLOUDY    60  30  32 MISG      29.98F
GRAND CANYON   CLOUDY    51  26  37 N10G18    30.08S
KINGMAN        MOSUNNY   68  19  15 NW14      30.01S
FLAGSTAFF      PTSUNNY   44  28  53 VRB6      30.10R

$$

REGIONAL REPORTS    NEVADA/IDAHO/WYOMING

CITY           SKY/WX    TMP DP  RH WIND       PRES   REMARKS
LAS VEGAS, NV  MOSUNNY   79  13   8 VRB6      29.89F
ELY            SUNNY     63  11  13 N21G29    30.06F
ELKO           SUNNY     68  20  16 N13G22    30.05F
POCATELLO, ID  SUNNY     66  21  18 SW10      30.03F
BURLEY         SUNNY     65  20  17 W13       30.02F
EVANSTON, WY   CLOUDY    41  33  73 E22G29    30.10F
ROCK SPRINGS   LGT RAIN  36  34  92 NE15      30.10S WCI  27
KEMMERER       CLOUDY    43  34  70 S10       30.12S

$$



USA.gov is the U.S. government's official web portal to all federal, state and local government web resources and services.